New Richmond, WI

1:09 PM CDT on August 28, 2016 (GMT -0500)
New Richmond Municipal

Weather History for KRNH - April, 2013

Change the Weather History Date:

Tuesday, April 30, 2013

  Actual Average (KMSP) Record (KMSP)
Temperature  
Mean Temperature 62 °F 54 °F  
Max Temperature 71 °F 65 °F 91 °F (1952)
Min Temperature 53 °F 44 °F 24 °F (1903)
Degree Days  
Heating Degree Days 3 11  
Month to date heating degree days 531  
Since 1 July heating degree days 7318  
Cooling Degree Days 0 0  
Month to date cooling degree days 5  
Year to date cooling degree days 5  
Growing Degree Days 12 (Base 50)    
Moisture  
Dew Point 45 °F    
Average Humidity 55    
Maximum Humidity 88    
Minimum Humidity 32    
Precipitation  
Precipitation 0.00 in 0.11 in 1.53 in (1954)
Month to date precipitation 2.66  
Year to date precipitation 6.22  
Snow  
Snow 0.00 in 0.00 in 3.10 in (1984)
Month to date snowfall 2.4  
Since 1 July snowfall 54.4  
Snow Depth -    
Sea Level Pressure  
Sea Level Pressure 29.64 in    
Wind  
Wind Speed 11 mph (SW)    
Max Wind Speed 23 mph    
Max Gust Speed 30 mph    
Visibility 10 miles    
Events      
T = Trace of Precipitation, MM = Missing Value Source: NWS Daily Summary

Daily Weather History Graph

Daily Weather History Graph

Search for Another Location

Airport or City:

Trip Planner

Search our weather history database for the weather conditions in past years. The results will help you decide how hot, cold, wet, or windy it might be!

Date:

Astronomy

Apr. 30, 2013 Rise Set
Actual Time 6:00 AM CDT 8:15 PM CDT
Civil Twilight 5:27 AM CDT 8:47 PM CDT
Nautical Twilight 4:47 AM CDT 9:28 PM CDT
Astronomical Twilight 4:03 AM CDT 10:13 PM CDT
Moon 12:41 AM CDT (4/30) 10:26 AM CDT (4/30)
Length of Visible Light 15h 19m
Length of Day
14h 15m
Waning Gibbous, 70% of the Moon is Illuminated
Apr 30
Waning Gibbous
May 2
Last Quarter
May 9
New
May 17
First Quarter
May 24
Full

Hourly Weather History & Observations

Time (CDT) Temp. Dew Point Humidity Pressure Visibility Wind Dir Wind Speed Gust Speed Precip Events Conditions
12:15 AM 59.0 °F 51.8 °F 77% 29.59 in 10.0 mi SE 4.6 mph - N/A   Clear
12:35 AM 59.0 °F 51.8 °F 77% 29.58 in 10.0 mi SE 5.8 mph - N/A   Clear
12:55 AM 59.0 °F 51.8 °F 77% 29.57 in 10.0 mi SE 6.9 mph - N/A   Clear
1:15 AM 59.0 °F 51.8 °F 77% 29.55 in 10.0 mi SE 8.1 mph - N/A   Clear
1:35 AM 59.0 °F 51.8 °F 77% 29.54 in 10.0 mi SE 8.1 mph - N/A   Clear
1:55 AM 59.0 °F 51.8 °F 77% 29.53 in 10.0 mi ESE 8.1 mph - N/A   Clear
2:15 AM 59.0 °F 51.8 °F 77% 29.53 in 10.0 mi ESE 9.2 mph - N/A   Clear
2:35 AM 57.2 °F 51.8 °F 82% 29.52 in 10.0 mi ESE 8.1 mph - N/A   Clear
2:55 AM 57.2 °F 51.8 °F 82% 29.52 in 10.0 mi ESE 8.1 mph - N/A   Clear
3:15 AM 57.2 °F 51.8 °F 82% 29.50 in 10.0 mi ESE 9.2 mph - N/A   Clear
3:35 AM 57.2 °F 51.8 °F 82% 29.49 in 10.0 mi SE 9.2 mph - N/A   Clear
3:55 AM 57.2 °F 51.8 °F 82% 29.50 in 10.0 mi ESE 9.2 mph - N/A   Clear
4:15 AM 55.4 °F 51.8 °F 88% 29.50 in 10.0 mi SE 9.2 mph - N/A   Clear
4:35 AM 55.4 °F 51.8 °F 88% 29.49 in 10.0 mi SE 12.7 mph - N/A   Clear
4:55 AM 57.2 °F 51.8 °F 82% 29.48 in 10.0 mi SE 12.7 mph - N/A   Clear
5:15 AM 57.2 °F 51.8 °F 82% 29.47 in 10.0 mi SE 12.7 mph 16.1 mph N/A   Clear
5:35 AM 59.0 °F 53.6 °F 82% 29.47 in 10.0 mi SSE 13.8 mph 18.4 mph N/A   Clear
5:55 AM 59.0 °F 53.6 °F 82% 29.47 in 10.0 mi SSE 12.7 mph 19.6 mph N/A   Scattered Clouds
6:15 AM 59.0 °F 53.6 °F 82% 29.46 in 10.0 mi SSE 12.7 mph - N/A   Scattered Clouds
6:35 AM 60.8 °F 53.6 °F 77% 29.46 in 10.0 mi SSE 12.7 mph 20.7 mph N/A   Clear
6:55 AM 60.8 °F 55.4 °F 82% 29.46 in 10.0 mi South 15.0 mph - N/A   Scattered Clouds
7:15 AM 62.6 °F 55.4 °F 77% 29.45 in 10.0 mi South 15.0 mph 19.6 mph N/A   Scattered Clouds
7:35 AM 62.6 °F 55.4 °F 77% 29.46 in 10.0 mi South 17.3 mph - N/A   Clear
7:55 AM 64.4 °F 55.4 °F 73% 29.46 in 10.0 mi South 16.1 mph - N/A   Clear
8:15 AM 68.0 °F 55.4 °F 64% 29.46 in 10.0 mi South 13.8 mph 23.0 mph N/A   Clear
8:35 AM 69.8 °F 55.4 °F 60% 29.47 in 10.0 mi SSW 18.4 mph 29.9 mph N/A   Clear
8:55 AM 69.8 °F 55.4 °F 60% 29.47 in 10.0 mi SSW 17.3 mph 24.2 mph N/A   Clear
9:15 AM 71.6 °F 55.4 °F 57% 29.48 in 10.0 mi SW 17.3 mph 27.6 mph N/A   Clear
9:35 AM 71.6 °F 55.4 °F 57% 29.48 in 10.0 mi SW 19.6 mph 26.5 mph N/A   Scattered Clouds
9:55 AM 71.6 °F 53.6 °F 53% 29.49 in 10.0 mi SW 23.0 mph 28.8 mph N/A   Scattered Clouds
10:15 AM 71.6 °F 53.6 °F 53% 29.50 in 10.0 mi SW 15.0 mph 20.7 mph N/A   Clear
10:35 AM 71.6 °F 53.6 °F 53% 29.52 in 10.0 mi WSW 16.1 mph - N/A   Clear
10:55 AM 71.6 °F 51.8 °F 50% 29.53 in 10.0 mi WSW 18.4 mph 25.3 mph N/A   Clear
11:15 AM 71.6 °F 44.6 °F 38% 29.55 in 10.0 mi WSW 16.1 mph 23.0 mph N/A   Clear
11:35 AM 71.6 °F 44.6 °F 38% 29.57 in 10.0 mi West 15.0 mph 23.0 mph N/A   Clear
11:55 AM 71.6 °F 44.6 °F 38% 29.58 in 10.0 mi West 18.4 mph 21.9 mph N/A   Clear
12:15 PM 69.8 °F 44.6 °F 40% 29.59 in 10.0 mi West 16.1 mph 25.3 mph N/A   Clear
12:35 PM 68.0 °F 44.6 °F 43% 29.61 in 10.0 mi West 16.1 mph 23.0 mph N/A   Clear
12:55 PM 68.0 °F 44.6 °F 43% 29.64 in 10.0 mi West 19.6 mph 24.2 mph N/A   Clear
1:15 PM 68.0 °F 44.6 °F 43% 29.63 in 10.0 mi West 19.6 mph - N/A   Clear
1:35 PM 68.0 °F 41.0 °F 37% 29.65 in 10.0 mi WNW 19.6 mph 24.2 mph N/A   Clear
1:55 PM 68.0 °F 41.0 °F 37% 29.66 in 10.0 mi West 12.7 mph 20.7 mph N/A   Clear
2:15 PM 68.0 °F 41.0 °F 37% 29.66 in 10.0 mi NW 11.5 mph 18.4 mph N/A   Clear
2:35 PM 66.2 °F 39.2 °F 37% 29.69 in 10.0 mi West 16.1 mph 21.9 mph N/A   Scattered Clouds
2:55 PM 68.0 °F 39.2 °F 35% 29.71 in 10.0 mi WNW 10.4 mph - N/A   Scattered Clouds
3:15 PM 68.0 °F 39.2 °F 35% 29.71 in 10.0 mi WNW 15.0 mph - N/A   Clear
3:35 PM 68.0 °F 39.2 °F 35% 29.73 in 10.0 mi West 12.7 mph - N/A   Clear
3:55 PM 64.4 °F 37.4 °F 37% 29.74 in 10.0 mi WSW 15.0 mph - N/A   Clear
4:15 PM 64.4 °F 39.2 °F 40% 29.72 in 10.0 mi West 4.6 mph - N/A   Scattered Clouds
4:35 PM 64.4 °F 39.2 °F 40% 29.75 in 10.0 mi WSW 11.5 mph - N/A   Scattered Clouds
4:55 PM 64.4 °F 39.2 °F 40% 29.77 in 10.0 mi WSW 11.5 mph - N/A   Clear
5:15 PM 64.4 °F 37.4 °F 37% 29.80 in 10.0 mi WSW 10.4 mph 16.1 mph N/A   Clear
5:35 PM 64.4 °F 35.6 °F 34% 29.80 in 10.0 mi WSW 10.4 mph - N/A   Mostly Cloudy
5:55 PM 64.4 °F 35.6 °F 34% 29.81 in 10.0 mi WSW 10.4 mph - N/A   Scattered Clouds
6:15 PM 66.2 °F 35.6 °F 32% 29.82 in 10.0 mi WSW 10.4 mph - N/A   Scattered Clouds
6:35 PM 64.4 °F 39.2 °F 40% 29.82 in 10.0 mi WSW 10.4 mph - N/A   Mostly Cloudy
6:55 PM 64.4 °F 37.4 °F 37% 29.82 in 10.0 mi West 10.4 mph - N/A   Scattered Clouds
7:15 PM 64.4 °F 37.4 °F 37% 29.82 in 10.0 mi West 11.5 mph - N/A   Scattered Clouds
7:35 PM 62.6 °F 32.0 °F 32% 29.82 in 10.0 mi WNW 11.5 mph - N/A   Scattered Clouds
7:55 PM 60.8 °F 32.0 °F 34% 29.82 in 10.0 mi WNW 9.2 mph - N/A   Clear
8:15 PM 59.0 °F 32.0 °F 36% 29.82 in 10.0 mi NW 10.4 mph - N/A   Clear
8:35 PM 59.0 °F 30.2 °F 34% 29.83 in 10.0 mi NW 6.9 mph - N/A   Scattered Clouds
8:55 PM 59.0 °F 30.2 °F 34% 29.86 in 10.0 mi NW 10.4 mph - N/A   Clear
9:15 PM 55.4 °F 32.0 °F 41% 29.87 in 10.0 mi NW 10.4 mph - N/A   Clear
9:35 PM 55.4 °F 32.0 °F 41% 29.88 in 10.0 mi NW 8.1 mph - N/A   Scattered Clouds
9:55 PM 55.4 °F 32.0 °F 41% 29.89 in 10.0 mi NW 6.9 mph - N/A   Scattered Clouds
10:15 PM 53.6 °F 32.0 °F 44% 29.91 in 10.0 mi Calm Calm - N/A   Mostly Cloudy
10:35 PM 53.6 °F 32.0 °F 44% 29.91 in 10.0 mi Calm Calm - N/A   Overcast
11:15 PM 53.6 °F 32.0 °F 44% 29.94 in 10.0 mi West 4.6 mph - N/A   Overcast
11:35 PM 53.6 °F 33.8 °F 47% 29.96 in 10.0 mi West 5.8 mph - N/A   Overcast
11:55 PM 53.6 °F 33.8 °F 47% 29.96 in 10.0 mi NW 5.8 mph - N/A   Mostly Cloudy